VHMRZ YBCS-YCKN

Flight info

Callsign VHMRZ
Flight time N/A
Altitude 8000
Route YBCS CS YCKN
Aircraft C208/L-SDRFGH/EB1

Departure

Time 2026-05-09 07:02
Airport Cairns International Airport (YBCS)

Arrival

Time N/A
Airport Cooktown Airport (YCKN)
Time Latitude Longitude Altitude Speed Heading
2026-05-09 06:34 -16.88074 145.74778 13 ft 0 kts 155°
2026-05-09 06:55 -16.88076 145.74780 13 ft 0 kts 139°
2026-05-09 06:55 -16.88081 145.74789 13 ft 1 kts 96°
2026-05-09 06:56 -16.88078 145.74803 13 ft 5 kts 69°
2026-05-09 06:56 -16.88069 145.74824 13 ft 0 kts 70°
2026-05-09 06:56 -16.88065 145.74833 13 ft 0 kts 68°
2026-05-09 06:57 -16.88058 145.74851 13 ft 5 kts 68°
2026-05-09 06:57 -16.88044 145.74884 13 ft 5 kts 66°
2026-05-09 06:57 -16.88015 145.74883 13 ft 8 kts 276°
2026-05-09 06:57 -16.88007 145.74831 13 ft 7 kts 322°
2026-05-09 06:58 -16.87944 145.74802 13 ft 10 kts 338°
2026-05-09 06:58 -16.87882 145.74772 13 ft 8 kts 335°
2026-05-09 06:58 -16.87844 145.74755 13 ft 7 kts 337°
2026-05-09 06:58 -16.87787 145.74761 13 ft 7 kts 60°
2026-05-09 06:59 -16.87776 145.74798 13 ft 6 kts 71°
2026-05-09 06:59 -16.87749 145.74857 13 ft 10 kts 55°
2026-05-09 06:59 -16.87631 145.74829 13 ft 25 kts 336°
2026-05-09 06:59 -16.87439 145.74743 13 ft 33 kts 336°
2026-05-09 07:00 -16.87207 145.74638 13 ft 37 kts 336°
2026-05-09 07:00 -16.86963 145.74528 13 ft 38 kts 337°
2026-05-09 07:00 -16.86752 145.74437 13 ft 25 kts 337°
2026-05-09 07:00 -16.86644 145.74375 13 ft 4 kts 316°
2026-05-09 07:01 -16.86606 145.74357 13 ft 5 kts 45°
2026-05-09 07:01 -16.86619 145.74374 13 ft 0 kts 158°
2026-05-09 07:01 -16.86646 145.74384 13 ft 7 kts 165°
2026-05-09 07:01 -16.86748 145.74429 13 ft 40 kts 155°
2026-05-09 07:02 -16.87178 145.74627 114 ft 80 kts 155°
2026-05-09 07:02 -16.87673 145.74844 458 ft 77 kts 157°
2026-05-09 07:02 -16.88203 145.75042 749 ft 83 kts 157°
2026-05-09 07:02 -16.88733 145.75247 1108 ft 80 kts 156°
2026-05-09 07:03 -16.89291 145.75449 1378 ft 89 kts 159°
2026-05-09 07:03 -16.89875 145.75648 1735 ft 88 kts 156°
2026-05-09 07:03 -16.90443 145.75839 2109 ft 85 kts 155°
2026-05-09 07:03 -16.91007 145.76008 2452 ft 85 kts 156°
2026-05-09 07:04 -16.91577 145.76162 2791 ft 85 kts 156°
2026-05-09 07:04 -16.92152 145.76302 3121 ft 85 kts 156°
2026-05-09 07:04 -16.92734 145.76437 3438 ft 86 kts 157°
2026-05-09 07:04 -16.93323 145.76572 3750 ft 87 kts 156°
2026-05-09 07:05 -16.93919 145.76701 4059 ft 89 kts 159°
2026-05-09 07:05 -16.94515 145.76819 4355 ft 83 kts 133°
2026-05-09 07:05 -16.94752 145.77330 4607 ft 85 kts 89°
2026-05-09 07:05 -16.94445 145.77886 4868 ft 100 kts 43°
2026-05-09 07:06 -16.93737 145.78104 5148 ft 113 kts 12°
2026-05-09 07:06 -16.92935 145.77947 5437 ft 121 kts 352°
2026-05-09 07:06 -16.92140 145.77626 5729 ft 124 kts 339°
2026-05-09 07:06 -16.91368 145.77241 6018 ft 122 kts 346°
2026-05-09 07:07 -16.90586 145.76912 6304 ft 121 kts 348°
2026-05-09 07:07 -16.89804 145.76598 6590 ft 119 kts 348°
2026-05-09 07:07 -16.89032 145.76289 6872 ft 118 kts 347°
2026-05-09 07:07 -16.88264 145.75983 7152 ft 117 kts 347°
2026-05-09 07:08 -16.87507 145.75680 7421 ft 116 kts 347°
2026-05-09 07:08 -16.86754 145.75377 7687 ft 115 kts 346°
2026-05-09 07:08 -16.86007 145.75076 7946 ft 115 kts 346°
2026-05-09 07:08 -16.85263 145.74776 8201 ft 114 kts 345°
2026-05-09 07:09 -16.84468 145.74461 8165 ft 140 kts 346°
2026-05-09 07:09 -16.83449 145.74064 7960 ft 162 kts 347°
2026-05-09 07:09 -16.82363 145.73669 7929 ft 166 kts 347°
2026-05-09 07:09 -16.81282 145.73237 7962 ft 166 kts 342°
2026-05-09 07:10 -16.80213 145.72776 8009 ft 165 kts 343°
2026-05-09 07:10 -16.79137 145.72327 8007 ft 167 kts 343°
2026-05-09 07:10 -16.78051 145.71880 8006 ft 167 kts 343°
2026-05-09 07:10 -16.76962 145.71437 8007 ft 166 kts 344°
2026-05-09 07:11 -16.75886 145.71005 8004 ft 162 kts 344°
2026-05-09 07:11 -16.74833 145.70580 8006 ft 161 kts 344°
2026-05-09 07:11 -16.73789 145.70158 8007 ft 160 kts 345°
2026-05-09 07:11 -16.72743 145.69737 8006 ft 160 kts 345°
2026-05-09 07:12 -16.71700 145.69317 8002 ft 160 kts 344°
2026-05-09 07:12 -16.70659 145.68897 8004 ft 159 kts 345°
2026-05-09 07:12 -16.69620 145.68479 8002 ft 159 kts 345°
2026-05-09 07:12 -16.68583 145.68061 8004 ft 159 kts 345°
2026-05-09 07:13 -16.67547 145.67644 8003 ft 159 kts 345°
2026-05-09 07:13 -16.66512 145.67228 8003 ft 159 kts 345°
2026-05-09 07:13 -16.65474 145.66810 8000 ft 159 kts 345°
2026-05-09 07:13 -16.64435 145.66392 8002 ft 159 kts 344°
2026-05-09 07:14 -16.63396 145.65974 8004 ft 160 kts 344°
2026-05-09 07:14 -16.62353 145.65554 8001 ft 160 kts 345°
2026-05-09 07:14 -16.61309 145.65135 7997 ft 160 kts 345°
2026-05-09 07:14 -16.60265 145.64715 7999 ft 160 kts 345°
2026-05-09 07:15 -16.59221 145.64295 7995 ft 160 kts 345°
2026-05-09 07:15 -16.58182 145.63877 7993 ft 160 kts 345°
2026-05-09 07:15 -16.57141 145.63458 7994 ft 159 kts 345°
2026-05-09 07:15 -16.56102 145.63040 7993 ft 159 kts 345°
2026-05-09 07:16 -16.55067 145.62624 7996 ft 159 kts 345°
2026-05-09 07:16 -16.54029 145.62208 7998 ft 159 kts 345°
2026-05-09 07:16 -16.52991 145.61790 8002 ft 160 kts 344°
2026-05-09 07:16 -16.51949 145.61372 8001 ft 160 kts 345°
2026-05-09 07:17 -16.50902 145.60951 7996 ft 160 kts 345°
2026-05-09 07:17 -16.49855 145.60531 7993 ft 161 kts 344°
2026-05-09 07:17 -16.48810 145.60111 7991 ft 160 kts 345°
2026-05-09 07:17 -16.47763 145.59690 7991 ft 160 kts 345°
2026-05-09 07:18 -16.46718 145.59271 7991 ft 160 kts 345°
2026-05-09 07:18 -16.45673 145.58851 7994 ft 160 kts 345°
2026-05-09 07:18 -16.44629 145.58432 7994 ft 160 kts 345°
2026-05-09 07:18 -16.43586 145.58013 7989 ft 160 kts 345°
2026-05-09 07:19 -16.42541 145.57594 7986 ft 160 kts 345°
2026-05-09 07:19 -16.41493 145.57173 7987 ft 160 kts 345°
2026-05-09 07:19 -16.40451 145.56755 7988 ft 160 kts 345°
2026-05-09 07:19 -16.39407 145.56336 7989 ft 160 kts 345°
2026-05-09 07:20 -16.38366 145.55917 7995 ft 160 kts 345°
2026-05-09 07:20 -16.37318 145.55497 7990 ft 160 kts 345°
2026-05-09 07:20 -16.36301 145.54993 7989 ft 164 kts 335°
2026-05-09 07:20 -16.35321 145.54377 7986 ft 165 kts 334°
2026-05-09 07:21 -16.34351 145.53730 7984 ft 165 kts 333°
2026-05-09 07:21 -16.33386 145.53073 7981 ft 165 kts 333°
2026-05-09 07:21 -16.32421 145.52417 7982 ft 165 kts 333°
2026-05-09 07:21 -16.31457 145.51765 7985 ft 165 kts 333°
2026-05-09 07:22 -16.30490 145.51118 7987 ft 165 kts 333°
2026-05-09 07:22 -16.29521 145.50473 7983 ft 165 kts 333°
2026-05-09 07:22 -16.28553 145.49832 7984 ft 164 kts 333°
2026-05-09 07:22 -16.27589 145.49194 7988 ft 163 kts 333°
2026-05-09 07:23 -16.26625 145.48559 7991 ft 163 kts 333°
2026-05-09 07:23 -16.25659 145.47922 7990 ft 164 kts 333°
2026-05-09 07:23 -16.24693 145.47287 7989 ft 164 kts 333°
2026-05-09 07:23 -16.23724 145.46648 7989 ft 165 kts 333°
2026-05-09 07:24 -16.22752 145.46008 7989 ft 165 kts 333°
2026-05-09 07:24 -16.21781 145.45370 7992 ft 165 kts 333°
2026-05-09 07:24 -16.20806 145.44727 7993 ft 165 kts 334°
2026-05-09 07:24 -16.19834 145.44088 7997 ft 165 kts 333°
2026-05-09 07:25 -16.18860 145.43447 8000 ft 165 kts 333°
2026-05-09 07:25 -16.17890 145.42809 8001 ft 165 kts 333°
2026-05-09 07:25 -16.16916 145.42168 8002 ft 165 kts 333°
2026-05-09 07:25 -16.15942 145.41528 8003 ft 165 kts 333°
2026-05-09 07:26 -16.14967 145.40887 8001 ft 165 kts 333°
2026-05-09 07:26 -16.13992 145.40246 8004 ft 165 kts 333°
2026-05-09 07:26 -16.13016 145.39605 8002 ft 166 kts 333°
2026-05-09 07:26 -16.12036 145.38961 8005 ft 166 kts 334°
2026-05-09 07:27 -16.11059 145.38319 8004 ft 166 kts 334°
2026-05-09 07:27 -16.10077 145.37674 8003 ft 166 kts 334°
2026-05-09 07:27 -16.09095 145.37029 8001 ft 166 kts 334°
2026-05-09 07:27 -16.08115 145.36384 8002 ft 166 kts 333°
2026-05-09 07:28 -16.07135 145.35741 8003 ft 166 kts 333°
2026-05-09 07:28 -16.06153 145.35096 8009 ft 166 kts 333°
2026-05-09 07:28 -16.05180 145.34456 8019 ft 165 kts 334°
2026-05-09 07:28 -16.04205 145.33815 8019 ft 165 kts 334°
2026-05-09 07:29 -16.03231 145.33176 8017 ft 165 kts 334°
2026-05-09 07:29 -16.02259 145.32537 8021 ft 165 kts 334°
2026-05-09 07:29 -16.01288 145.31900 8023 ft 164 kts 334°
2026-05-09 07:29 -16.00317 145.31262 8023 ft 164 kts 334°
2026-05-09 07:30 -15.99347 145.30626 8022 ft 164 kts 334°
2026-05-09 07:30 -15.98378 145.29990 8026 ft 164 kts 334°
2026-05-09 07:30 -15.97406 145.29352 8029 ft 164 kts 334°
2026-05-09 07:30 -15.96433 145.28714 8028 ft 165 kts 334°
2026-05-09 07:31 -15.95456 145.28073 8028 ft 165 kts 334°
2026-05-09 07:31 -15.94480 145.27434 8027 ft 165 kts 334°
2026-05-09 07:31 -15.93506 145.26795 8032 ft 165 kts 334°
2026-05-09 07:31 -15.92531 145.26157 8035 ft 165 kts 333°
2026-05-09 07:32 -15.91558 145.25519 8035 ft 165 kts 334°
2026-05-09 07:32 -15.90583 145.24881 8037 ft 165 kts 334°
2026-05-09 07:32 -15.89608 145.24242 8034 ft 165 kts 333°
2026-05-09 07:32 -15.88629 145.23600 8031 ft 165 kts 333°
2026-05-09 07:33 -15.87653 145.22961 8031 ft 165 kts 334°
2026-05-09 07:33 -15.85703 145.21682 8033 ft 165 kts 334°
2026-05-09 07:33 -15.84726 145.21042 8032 ft 165 kts 334°
2026-05-09 07:34 -15.83748 145.20402 8033 ft 166 kts 334°
2026-05-09 07:34 -15.82769 145.19761 8035 ft 166 kts 334°
2026-05-09 07:34 -15.81792 145.19121 8027 ft 166 kts 334°
2026-05-09 07:34 -15.80794 145.18470 7922 ft 172 kts 334°
2026-05-09 07:35 -15.79767 145.17800 7802 ft 176 kts 334°
2026-05-09 07:35 -15.78723 145.17118 7683 ft 178 kts 334°
2026-05-09 07:35 -15.77670 145.16430 7562 ft 179 kts 334°
2026-05-09 07:35 -15.76611 145.15737 7442 ft 180 kts 334°
2026-05-09 07:36 -15.75549 145.15042 7320 ft 180 kts 334°
2026-05-09 07:36 -15.74488 145.14348 7197 ft 180 kts 335°
2026-05-09 07:36 -15.73421 145.13650 7074 ft 181 kts 335°
2026-05-09 07:36 -15.72355 145.12953 6951 ft 181 kts 335°
2026-05-09 07:37 -15.71288 145.12255 6827 ft 181 kts 335°
2026-05-09 07:37 -15.70217 145.11555 6703 ft 182 kts 336°
2026-05-09 07:37 -15.69144 145.10853 6580 ft 182 kts 336°
2026-05-09 07:37 -15.68067 145.10149 6457 ft 183 kts 336°
2026-05-09 07:38 -15.66987 145.09443 6334 ft 183 kts 336°
2026-05-09 07:38 -15.65904 145.08735 6212 ft 184 kts 337°
2026-05-09 07:38 -15.64820 145.08027 6089 ft 184 kts 336°
2026-05-09 07:38 -15.63733 145.07316 5967 ft 184 kts 336°
2026-05-09 07:39 -15.62644 145.06605 5845 ft 185 kts 336°
2026-05-09 07:39 -15.61551 145.05891 5723 ft 185 kts 336°
2026-05-09 07:39 -15.60458 145.05176 5601 ft 186 kts 336°
2026-05-09 07:39 -15.59359 145.04459 5484 ft 186 kts 335°
2026-05-09 07:40 -15.58269 145.03745 5432 ft 183 kts 336°
2026-05-09 07:40 -15.57215 145.03061 5375 ft 174 kts 336°
2026-05-09 07:40 -15.56206 145.02401 5320 ft 169 kts 337°
2026-05-09 07:40 -15.55224 145.01757 5315 ft 160 kts 337°
2026-05-09 07:41 -15.54306 145.01153 5265 ft 153 kts 337°
2026-05-09 07:41 -15.53409 145.00564 5212 ft 151 kts 337°
2026-05-09 07:41 -15.52520 144.99982 5163 ft 150 kts 338°
2026-05-09 07:41 -15.51637 144.99400 5119 ft 149 kts 336°
2026-05-09 07:42 -15.50790 144.98812 5152 ft 145 kts 336°
2026-05-09 07:42 -15.49939 144.98220 5107 ft 148 kts 335°
2026-05-09 07:42 -15.49093 144.97624 5126 ft 144 kts 337°
2026-05-09 07:42 -15.48252 144.97050 5126 ft 144 kts 337°
2026-05-09 07:43 -15.47430 144.96478 5171 ft 141 kts 336°
2026-05-09 07:43 -15.46612 144.95900 5171 ft 141 kts 338°
2026-05-09 07:43 -15.45790 144.95305 5132 ft 146 kts 335°
2026-05-09 07:43 -15.44944 144.94735 5123 ft 143 kts 339°
2026-05-09 07:44 -15.44060 144.94333 5064 ft 132 kts
2026-05-09 07:44 -15.43250 144.94591 4941 ft 117 kts 44°
2026-05-09 07:44 -15.42537 144.95020 4858 ft 120 kts 43°
2026-05-09 07:44 -15.41826 144.95480 4753 ft 119 kts 48°
2026-05-09 07:45 -15.41205 144.96045 4607 ft 120 kts 54°
2026-05-09 07:45 -15.40575 144.96629 4451 ft 122 kts 53°
2026-05-09 07:45 -15.39934 144.97210 4315 ft 122 kts 54°
2026-05-09 07:45 -15.39296 144.97795 4143 ft 124 kts 55°
2026-05-09 07:46 -15.38668 144.98407 3884 ft 124 kts 57°
2026-05-09 07:46 -15.38036 144.99021 3630 ft 125 kts 58°
2026-05-09 07:46 -15.37653 144.99745 3331 ft 111 kts 94°